Wind_Speed
10 11 10 10 11 10 9 9 9 8 7 7 7 7 7 7 8 9 8 8 7 6 6 6 7 7 8 9 10 12 13 14 15 14 13 15 16 17 19 20 21 23 24 24 24 24 25 26 26 26 24 21 20 18 16 16 16 17 16 13 12 14 17 18 17 16 15 14 13 12 12 13 14 14 13 11 10 10 11 12 13 15 16 19 22
11 11 11 10 9 9 9 9 8 7 6 6 7 7 7 7 8 8 8 6 4 4 4 4 5 6 7 8 9 11 13 14 15 16 15 16 18 19 20 21 22 22 22 22 23 24 25 24 23 22 20 18 18 17 16 16 16 16 15 12 10 12 15 17 17 17 17 16 14 11 10 12 15 15 13 12 10 10 11 12 13 14 15 17 19
9 10 10 9 8 8 9 8 8 7 6 6 6 5 4 5 6 7 7 5 3 1 1 3 6 7 7 7 7 8 10 12 14 15 15 16 17 18 18 19 20 20 20 21 22 23 22 21 19 19 19 19 19 19 17 15 16 16 16 13 12 12 13 15 17 17 18 18 16 12 10 9 12 13 12 12 12 11 13 14 13 14 15 16 17
7 9 9 10 9 9 8 8 8 8 6 5 4 3 3 4 5 6 6 5 4 4 5 6 8 9 10 11 11 10 9 10 12 13 14 15 16 16 16 17 18 18 18 19 19 19 19 18 18 19 19 19 20 21 20 18 19 19 16 15 14 12 12 15 16 17 19 19 16 14 14 12 11 11 10 12 14 13 14 15 15 15 16 18 19
8 8 8 9 9 9 9 9 10 8 6 5 4 4 4 5 6 7 7 8 8 7 7 8 9 12 14 15 15 14 11 10 10 10 10 11 12 13 14 15 16 16 16 16 17 17 17 18 18 19 19 20 20 22 23 22 23 21 17 16 16 13 14 16 16 18 20 18 15 15 17 16 15 15 13 11 13 14 14 16 17 18 18 18 18
11 10 9 9 9 10 11 11 10 8 7 6 5 6 5 5 7 8 9 10 9 7 7 9 12 14 16 18 19 19 16 14 12 11 10 10 10 10 11 12 13 13 14 15 16 16 17 18 18 19 19 19 20 22 23 23 24 23 20 19 17 15 16 17 16 18 19 16 15 16 17 19 18 19 18 14 13 14 16 17 18 19 19 19 18
15 15 14 12 11 11 11 11 10 9 8 8 7 7 6 7 8 9 10 9 6 6 8 10 12 13 16 18 21 21 20 19 17 15 14 13 12 11 11 12 12 12 13 13 14 15 15 16 16 16 17 17 19 20 21 22 23 22 22 21 18 17 18 18 17 17 16 13 13 15 16 17 18 19 20 20 18 15 15 15 16 17 18 18 18
17 17 17 16 13 11 10 10 10 10 10 10 9 8 7 8 8 9 9 6 4 6 7 9 10 12 15 18 20 22 22 22 21 20 20 18 17 15 14 14 13 13 12 12 13 13 13 14 14 14 14 15 16 17 18 18 19 19 20 20 18 18 18 17 16 15 13 12 13 15 15 16 18 20 21 22 22 20 16 16 16 18 18 18 19
18 18 17 17 15 12 10 10 11 12 13 12 11 10 9 8 9 8 7 4 3 4 6 7 8 11 14 16 18 20 21 22 23 23 23 22 21 20 19 17 16 15 14 14 13 13 13 13 14 14 14 14 14 14 14 14 15 16 17 18 18 18 18 17 16 15 14 14 15 15 15 16 19 21 21 21 24 24 23 21 20 20 19 18 19
20 19 19 17 16 14 12 12 13 14 15 14 14 14 12 10 9 9 7 4 2 3 3 4 6 9 12 14 16 18 19 20 21 22 23 23 23 23 22 21 20 18 17 16 16 15 15 15 14 14 14 14 13 12 12 12 12 13 14 16 16 17 17 17 17 17 16 16 17 17 17 17 18 19 20 21 22 24 25 25 24 24 22 20 21
23 21 20 19 18 17 15 15 15 15 16 17 17 17 14 12 11 11 9 6 3 2 2 2 4 7 9 10 13 15 18 19 19 20 21 23 24 24 24 24 23 22 21 20 19 17 16 16 15 15 14 14 13 13 12 12 12 13 13 14 15 15 16 17 17 18 17 16 18 19 19 18 18 18 19 19 20 22 23 24 24 25 25 23 23
26 23 21 21 21 20 20 19 18 18 18 19 19 18 17 14 14 13 11 8 5 3 2 1 1 3 4 6 9 13 16 18 19 19 20 22 24 26 26 26 26 26 26 25 23 20 18 17 16 15 14 14 14 13 13 13 13 14 14 14 14 14 15 16 16 17 16 16 16 17 18 17 17 17 18 18 19 21 23 23 24 24 24 23 22
27 26 24 23 23 22 21 21 21 21 19 19 19 20 19 17 16 15 13 10 7 5 5 3 2 1 2 4 7 11 14 16 18 19 21 22 25 27 27 28 28 28 28 27 26 23 20 18 17 16 15 14 13 13 13 13 13 13 13 13 13 14 15 15 16 16 16 15 15 16 16 17 17 18 19 20 21 22 23 24 24 26 27 26 24
27 28 26 25 24 23 22 22 22 22 20 19 19 21 20 19 19 17 16 13 10 8 7 6 5 4 4 5 7 10 12 15 17 19 21 23 26 28 29 29 29 30 30 30 28 25 22 19 18 17 16 15 13 13 13 13 12 12 12 12 13 14 14 15 15 15 16 16 16 17 17 18 19 19 20 22 23 24 25 26 26 26 28 28 26
27 28 28 26 26 25 24 24 24 23 22 20 19 20 21 21 20 20 18 15 12 10 10 9 7 7 8 9 10 11 12 14 16 18 21 23 26 28 30 30 30 31 31 31 29 26 22 20 19 18 17 15 14 12 12 11 11 11 11 12 12 13 14 14 15 16 16 17 17 18 19 20 20 21 22 23 24 25 27 28 29 29 28 28 26
26 26 26 26 27 28 27 26 26 25 24 22 21 21 21 20 20 21 21 18 15 13 13 12 11 11 11 12 13 14 14 15 16 18 20 23 26 29 30 30 30 31 32 32 30 26 22 20 19 19 18 16 14 13 12 11 11 11 12 12 13 13 13 14 15 16 17 18 20 20 20 21 22 23 24 24 25 26 27 28 29 31 31 30 28
25 23 23 24 27 28 28 28 27 27 25 23 21 20 20 19 18 19 22 22 20 17 15 15 15 14 15 15 16 17 17 17 18 19 21 23 27 29 29 29 29 30 32 31 29 25 21 20 18 18 17 16 15 14 13 13 12 12 13 14 14 14 14 14 16 18 20 21 22 22 21 21 23 25 25 25 25 26 28 29 29 30 31 32 31
23 22 22 23 25 25 26 27 26 25 25 23 22 22 21 20 19 19 21 22 21 19 18 18 18 17 18 19 19 20 21 21 20 21 22 24 27 28 28 28 28 29 31 30 27 24 21 19 18 17 15 14 14 14 15 15 15 14 14 15 15 15 14 15 16 19 21 22 24 24 23 24 25 26 26 26 26 27 28 29 29 29 30 31 32
25 25 24 24 26 26 26 26 25 25 25 25 25 26 26 25 23 22 21 21 21 20 20 20 21 21 21 22 23 24 24 24 23 23 23 24 27 28 27 27 27 28 30 28 25 23 21 20 19 17 16 15 15 15 15 15 16 15 15 16 17 17 16 16 16 18 20 22 25 26 25 25 25 26 28 28 28 29 29 29 29 30 31 31 30
21 22 23 24 26 27 27 24 22 22 22 24 26 28 28 27 27 26 24 22 22 22 22 22 22 22 23 25 26 27 27 26 26 25 24 25 27 29 27 25 26 27 28 27 25 22 20 19 19 18 18 17 16 15 15 15 16 16 16 17 18 18 18 18 18 18 20 22 24 23 22 23 25 26 29 30 31 30 30 30 30 31 32 32 31
14 15 18 22 24 26 26 22 21 22 23 26 27 28 28 28 28 28 27 26 25 25 24 24 24 24 25 26 28 29 29 29 28 27 25 25 28 29 26 24 25 27 27 26 23 20 19 19 19 18 18 17 16 16 17 18 18 18 18 18 18 18 18 19 19 19 19 21 22 21 21 23 26 27 28 30 31 31 32 32 32 32 32 33 33
11 13 15 17 19 21 21 21 23 25 26 27 27 28 28 28 28 29 30 29 29 28 26 25 26 27 26 27 28 30 30 31 30 28 26 26 28 29 26 24 26 27 27 25 23 19 17 17 18 18 18 18 18 19 19 19 18 17 17 18 18 17 17 17 18 18 19 21 22 22 22 23 25 26 27 28 30 32 34 34 34 34 32 32 33
13 14 14 15 17 17 17 21 24 25 26 27 27 28 28 28 29 30 32 31 31 30 27 27 29 30 28 27 28 29 31 32 31 28 26 27 29 28 25 24 26 28 27 24 21 18 16 16 16 17 17 18 19 19 19 18 17 16 16 16 17 17 17 17 18 18 20 22 23 23 23 23 24 26 27 29 32 34 35 34 34 32 31 30 30
15 13 12 14 18 19 20 23 25 25 27 27 26 27 27 27 28 30 31 30 30 31 30 30 31 31 30 29 29 30 31 32 31 28 26 26 29 27 24 24 27 28 26 23 20 17 16 16 16 17 17 18 17 17 18 18 17 16 16 16 17 18 19 19 19 20 21 23 24 24 24 24 24 26 28 30 32 31 31 32 31 30 30 30 31
15 13 13 13 16 18 19 22 23 24 25 24 24 24 24 25 26 28 29 30 30 31 32 33 33 33 31 32 32 30 30 31 31 28 25 26 28 26 23 24 27 27 24 21 18 16 16 16 17 18 18 18 17 17 18 18 17 17 17 18 18 18 19 19 19 21 22 23 24 24 24 26 27 28 28 28 28 27 27 29 29 29 32 33 33
13 13 14 14 13 12 13 16 19 22 23 24 24 23 23 24 24 26 28 29 30 31 31 33 34 33 32 34 35 31 27 29 29 27 25 25 26 25 23 25 27 25 22 19 17 16 16 18 19 19 18 17 17 17 17 17 16 17 18 18 18 18 18 18 19 20 22 22 24 24 25 26 28 28 27 26 25 24 25 26 27 28 31 33 33
12 10 13 16 17 15 13 14 16 19 21 23 24 25 26 25 24 25 25 27 28 28 30 32 33 33 32 35 37 31 25 26 27 26 24 23 24 24 23 25 26 24 20 17 16 16 17 19 19 18 17 17 18 18 18 16 16 17 17 18 18 18 18 19 20 21 22 23 24 24 24 25 25 25 24 23 24 24 23 24 26 27 29 31 33
12 11 12 14 15 16 15 16 18 19 20 21 23 24 26 27 27 26 25 25 26 27 29 30 32 33 33 36 38 29 22 23 23 22 22 21 22 22 23 25 24 21 17 14 14 15 17 18 18 17 18 18 19 19 17 16 17 17 17 18 19 19 19 19 19 20 22 23 24 24 23 24 23 22 21 21 23 23 23 23 25 27 28 29 31
14 13 13 13 13 14 16 18 21 22 22 22 22 22 24 25 27 28 28 28 28 28 30 30 30 32 34 38 38 26 19 21 21 20 21 20 20 22 23 23 22 18 15 13 13 15 17 17 16 17 18 19 18 16 16 16 17 18 19 19 20 21 21 20 20 20 21 22 23 24 24 24 22 20 20 22 23 23 24 24 24 25 26 27 29
16 14 14 14 15 16 17 19 22 25 25 24 22 22 22 22 24 26 29 30 30 29 30 29 28 30 33 38 37 25 18 20 20 19 19 18 19 21 20 20 18 15 13 12 13 16 17 15 15 17 18 18 16 14 14 16 18 19 20 20 21 23 23 23 23 22 23 22 23 24 24 24 22 20 20 22 23 24 25 25 25 25 25 26 28
15 14 14 15 15 17 19 21 23 25 27 26 25 23 22 21 21 23 25 28 29 29 29 28 28 31 34 39 37 25 18 20 20 18 17 18 19 18 17 17 15 13 11 11 12 15 16 15 17 19 20 19 16 15 15 16 19 21 23 23 23 24 24 25 25 26 26 25 25 24 25 25 23 21 21 23 23 24 25 26 25 26 26 27 29
13 13 14 14 15 18 21 22 23 24 26 27 26 26 24 22 21 21 22 25 26 27 28 29 32 35 38 40 35 23 18 20 19 16 17 18 17 15 15 16 14 12 11 10 12 14 16 17 20 22 22 21 20 18 17 18 20 23 24 24 25 25 25 26 27 29 28 28 28 26 26 27 25 23 23 24 25 26 26 25 25 25 26 27 29
13 12 12 14 16 19 22 23 22 23 25 26 26 27 26 24 23 22 22 24 26 28 29 30 32 35 39 40 31 19 17 18 16 15 16 16 14 14 15 15 14 13 11 11 12 14 16 18 20 22 22 22 21 21 22 22 22 24 25 25 25 26 27 28 29 30 30 30 29 28 27 27 27 25 25 26 27 27 26 25 25 24 24 25 27
12 12 14 15 15 17 19 19 19 21 24 25 25 25 26 26 26 25 23 24 27 30 31 31 32 35 40 40 28 18 17 16 11 12 14 13 12 13 14 15 15 15 15 14 15 16 18 19 20 21 21 22 22 24 26 26 24 25 25 25 25 26 28 29 29 29 29 29 29 28 27 28 28 27 26 27 27 27 26 26 25 24 24 24 26
14 16 17 16 16 16 15 13 13 16 21 24 24 23 24 27 28 27 26 28 30 32 34 36 37 41 43 39 27 21 17 11 8 10 11 11 11 12 14 15 16 16 16 17 18 21 22 23 24 21 18 20 24 26 29 29 27 27 26 26 26 26 27 28 27 26 27 28 27 28 29 29 30 29 28 27 27 26 27 27 25 25 25 25 26
18 19 18 16 17 16 14 13 12 12 16 20 22 22 23 27 31 33 34 36 38 39 41 43 45 46 41 33 27 23 15 7 6 7 8 9 11 13 15 16 17 18 20 20 20 21 23 26 27 23 20 23 26 28 30 30 28 28 29 28 28 27 26 26 25 23 23 24 26 28 30 31 31 30 29 28 28 27 27 27 26 26 25 25 26
19 19 16 14 15 16 16 16 15 15 16 17 19 21 23 28 34 38 38 39 40 41 41 44 47 44 36 28 25 22 13 5 5 6 8 10 12 15 17 19 20 21 21 20 19 21 25 29 29 27 27 28 28 30 31 29 27 29 30 30 29 28 27 26 25 21 20 22 25 28 31 31 30 30 29 29 29 28 28 28 28 26 25 24 25
18 16 15 14 14 15 17 19 21 22 21 19 19 21 25 30 34 36 38 38 40 39 37 38 40 38 34 30 24 19 11 5 4 8 11 12 16 19 20 21 22 21 20 21 23 27 29 30 30 32 31 28 29 32 32 29 28 30 31 31 30 29 28 27 25 22 20 22 26 29 30 31 29 29 29 29 29 29 28 28 28 26 25 24 25
16 16 16 17 18 17 19 22 23 23 22 22 21 22 26 31 34 37 41 40 39 36 32 32 32 31 33 29 19 16 12 6 5 10 12 14 17 20 20 21 23 23 23 25 29 31 31 29 31 33 30 27 31 34 32 30 31 32 32 30 30 30 30 27 25 24 22 24 27 29 29 30 29 29 29 29 29 30 29 28 27 27 26 25 26
14 14 16 19 22 23 24 24 22 20 20 20 19 19 22 26 31 36 40 41 38 31 27 28 28 29 29 21 13 14 13 9 7 11 12 14 17 19 19 22 24 25 26 28 31 32 33 32 32 32 30 30 33 33 32 32 34 33 32 30 29 30 29 28 26 25 26 27 28 28 29 29 29 28 29 29 29 29 29 28 26 26 26 26 26
13 16 18 21 24 25 26 25 22 20 20 19 18 17 18 20 25 29 32 36 37 31 27 28 27 27 26 17 11 11 12 9 9 12 13 14 17 18 21 24 26 27 28 30 33 35 35 33 32 33 33 32 32 33 34 34 34 32 31 30 30 29 29 28 26 26 27 28 27 28 28 28 28 28 29 29 29 28 28 26 25 25 26 26 26
15 17 19 21 22 23 24 23 23 23 24 23 21 20 20 23 25 26 25 27 30 30 30 28 25 23 22 15 10 10 11 10 11 12 12 14 17 20 24 27 28 29 31 33 35 35 35 33 33 34 33 31 32 34 34 34 32 31 30 30 30 29 28 27 27 27 28 28 28 28 28 27 27 28 28 28 28 27 27 24 23 24 25 25 26
16 19 22 22 21 22 23 24 25 26 27 27 26 26 28 27 26 23 19 20 26 30 30 28 27 25 19 13 9 10 12 12 12 13 14 17 20 23 27 28 29 31 34 35 34 34 34 35 34 32 30 30 32 33 32 31 31 30 31 31 30 29 28 27 27 27 26 25 24 25 26 26 26 26 26 26 26 26 24 22 22 23 24 24 25
23 26 27 26 24 23 23 25 26 27 28 29 30 33 35 33 28 22 17 20 25 28 27 28 29 25 18 13 11 12 14 14 12 13 16 20 23 26 27 28 31 34 35 34 34 35 35 34 31 30 30 31 31 30 29 29 30 30 30 30 29 29 28 27 25 23 21 19 20 22 24 25 24 24 24 24 24 23 22 21 22 23 23 24 24
30 30 29 27 25 23 23 24 26 27 29 32 33 32 30 26 20 16 17 21 25 25 24 26 26 21 17 17 16 16 17 15 12 13 17 20 24 27 28 31 33 35 34 34 35 34 33 30 29 29 30 30 29 28 28 29 29 29 28 28 28 28 27 23 20 18 17 17 19 21 23 23 23 23 22 22 22 22 22 22 23 23 24 24 24
31 30 28 24 20 20 22 25 27 29 30 32 32 27 21 16 14 14 16 19 22 22 22 24 24 22 23 24 23 22 21 17 13 16 19 23 27 29 31 33 33 33 32 32 32 31 30 29 28 28 28 28 27 27 28 29 29 27 26 27 27 25 23 20 17 16 17 18 19 21 22 22 22 22 22 22 22 22 23 23 24 24 25 25 25
29 29 27 23 20 21 24 26 27 27 27 28 28 27 23 19 15 14 15 17 20 22 23 24 25 27 29 28 25 24 24 21 19 21 24 28 31 31 31 31 30 30 29 28 28 29 29 28 28 27 27 27 27 27 28 28 27 25 24 25 24 22 20 17 15 16 18 19 20 22 22 21 21 22 22 22 22 22 23 24 24 25 26 26 26
29 28 26 25 24 23 23 23 24 24 24 24 25 24 23 19 17 16 16 20 23 25 27 30 31 31 30 29 28 28 26 22 21 24 27 29 31 30 30 29 28 27 27 26 27 28 28 27 27 27 27 27 28 27 27 25 24 23 23 22 20 19 17 16 15 17 19 20 21 22 22 21 21 22 23 23 22 23 24 24 24 25 26 26 26
28 27 26 25 24 22 21 22 23 23 23 24 23 24 24 24 25 25 22 26 33 33 33 36 34 31 29 30 30 25 20 20 24 27 28 29 29 28 27 25 25 25 25 26 27 27 26 26 27 27 28 29 29 27 25 23 22 21 21 20 19 17 16 16 16 18 20 21 21 22 22 22 22 22 23 23 23 23 25 25 25 25 25 25 25
25 25 25 25 23 22 21 22 22 22 23 24 24 25 27 29 31 31 32 34 36 30 26 28 28 26 26 24 20 16 17 22 25 26 26 26 25 25 23 21 22 24 25 26 27 27 27 28 29 29 30 30 29 26 23 22 21 20 20 19 18 17 17 17 17 18 20 21 21 22 22 22 23 23 24 23 23 24 25 25 24 24 24 24 23
24 24 23 23 23 23 22 21 21 22 22 23 24 24 25 28 29 27 31 34 28 14 12 15 16 17 18 14 12 14 16 20 22 22 22 22 22 21 21 21 23 25 26 26 27 27 28 28 29 30 29 28 27 24 22 21 21 21 19 18 17 17 16 16 17 18 19 20 21 21 22 23 23 23 23 22 23 24 24 24 23 23 24 23 23
Wind_Direction
199 199 207 206 206 212 215 222 232 234 239 242 238 231 227 228 227 229 240 257 267 264 271 286 291 290 292 290 287 285 284 284 279 274 271 268 266 267 270 272 272 274 281 288 292 293 292 292 293 294 296 299 300 304 309 310 317 324 320 316 320 323 324 323 325 327 324 318 314 311 311 308 300 296 291 285 282 279 274 268 265 264 262 261 260
205 200 202 205 207 209 209 213 225 235 237 235 237 235 232 228 223 223 229 242 255 263 287 312 324 322 319 308 297 293 288 285 282 278 275 271 269 271 275 279 281 285 289 290 290 289 289 291 293 295 298 301 305 311 313 308 310 320 323 317 312 316 320 318 320 325 323 320 319 321 325 320 314 312 301 287 284 284 281 273 268 267 263 261 261
210 203 203 208 212 214 216 215 224 236 231 228 235 229 215 208 208 207 207 212 215 241 354 38 34 24 14 358 341 325 308 298 294 291 290 288 286 285 285 286 287 289 289 287 285 285 288 293 295 299 305 311 315 316 315 310 309 314 316 312 306 309 310 311 317 320 315 313 317 322 325 320 313 313 308 299 292 284 281 274 266 263 259 255 255
215 214 211 213 219 219 222 222 226 234 232 227 220 191 163 154 165 176 179 172 161 143 102 74 50 38 29 24 19 6 346 326 315 307 301 294 292 292 289 287 285 284 283 283 283 285 290 294 298 304 310 315 316 314 315 314 310 311 313 310 310 315 312 309 313 313 306 306 312 317 316 311 301 299 298 293 290 284 280 277 271 262 257 253 251
220 225 221 224 230 225 225 228 227 228 226 221 194 170 154 141 151 155 154 151 147 136 105 73 52 43 36 32 31 24 15 360 344 331 318 307 301 299 295 290 287 285 286 290 295 298 300 301 305 307 310 314 314 313 315 315 314 315 314 309 307 308 308 307 305 304 303 304 308 310 308 306 303 302 300 288 285 284 279 278 280 275 268 261 256
215 221 228 231 231 226 227 230 228 223 219 214 192 178 167 152 154 148 145 149 146 128 93 67 53 46 39 36 35 32 30 23 13 1 349 339 328 318 311 305 302 302 301 303 305 305 305 307 308 309 311 313 312 312 314 314 315 316 312 308 306 302 300 297 291 292 295 298 305 306 302 303 301 301 302 293 280 280 279 278 281 281 278 273 267
214 215 222 228 228 225 228 233 232 225 220 214 198 188 180 166 158 150 149 152 140 104 78 61 50 44 37 34 34 34 33 31 27 20 12 6 358 348 340 332 325 320 315 312 310 307 307 306 306 307 308 308 308 308 309 310 311 312 309 307 307 304 297 291 285 287 290 295 300 297 294 297 295 295 298 294 284 279 277 278 281 283 281 277 274
224 222 224 229 231 226 228 235 233 227 225 220 208 199 189 178 167 160 158 152 115 80 69 58 49 42 35 31 30 30 30 30 28 25 22 18 13 7 0 354 344 336 329 322 317 313 309 305 305 304 303 303 303 303 303 303 305 306 307 307 306 303 299 296 295 296 299 298 292 285 285 291 292 291 291 288 285 282 276 275 279 281 282 283 281
234 232 231 232 233 229 226 231 233 231 229 225 216 207 200 192 182 175 175 164 106 80 73 60 48 39 33 27 24 23 22 23 23 22 21 19 18 15 11 6 359 350 342 335 329 324 319 315 313 311 308 307 305 304 301 299 299 300 302 305 305 304 305 308 306 302 299 293 285 281 285 290 289 289 286 282 284 286 285 282 278 273 273 279 285
238 238 238 236 234 231 227 228 233 233 232 230 220 212 209 205 197 195 196 189 145 108 94 65 46 39 31 22 16 14 12 13 15 16 16 15 15 15 13 9 5 359 353 346 341 335 330 327 324 321 320 319 317 313 306 299 295 294 295 298 301 304 307 309 306 301 296 288 283 283 288 290 285 283 283 283 286 288 289 289 285 279 273 273 279
241 241 243 239 233 233 230 229 233 234 233 232 224 216 216 213 208 208 208 205 199 172 141 71 42 37 28 17 8 2 360 0 2 4 5 7 7 7 8 8 6 3 359 354 350 345 339 335 332 331 330 328 326 322 315 307 300 296 295 295 297 301 304 306 304 301 297 289 285 286 289 290 285 282 284 287 289 289 290 291 291 289 286 283 282
243 244 248 242 234 233 232 229 233 235 234 234 229 222 220 218 216 217 217 214 214 220 230 259 31 34 21 5 353 349 349 349 351 353 355 357 358 359 1 2 2 1 359 356 353 350 345 340 337 336 334 333 331 327 321 316 311 308 305 302 301 301 302 302 301 300 299 294 290 290 292 292 292 292 293 296 297 296 296 297 298 297 295 293 291
244 245 247 244 239 237 235 232 234 237 238 239 234 228 226 224 222 224 224 221 223 236 245 245 232 251 323 327 329 333 337 340 343 346 349 351 352 353 354 355 356 357 357 355 353 349 346 343 340 336 334 333 332 329 324 321 319 317 312 307 303 300 298 298 298 298 298 295 293 294 296 298 299 300 301 301 302 302 301 301 302 302 301 299 298
243 246 247 248 246 244 244 240 240 245 248 247 241 236 234 229 227 228 228 227 230 240 246 246 236 243 274 289 302 316 326 333 338 341 344 346 348 349 350 350 352 354 355 354 352 349 346 343 341 339 337 334 330 326 325 324 322 319 314 307 299 296 296 295 296 297 296 294 293 294 298 300 301 301 301 302 302 303 304 303 302 301 301 301 300
242 248 250 253 252 251 253 250 250 254 256 256 251 243 241 237 233 231 232 235 237 242 250 252 245 251 265 274 286 302 314 325 332 337 340 342 346 347 346 346 349 351 352 352 351 349 346 344 344 344 343 339 333 328 325 324 322 319 314 308 304 302 301 301 302 302 299 296 293 294 297 298 298 299 299 300 302 303 305 307 307 304 301 300 298
240 247 250 254 254 253 255 255 256 257 259 261 256 251 252 250 244 238 237 240 243 245 253 256 255 259 264 271 283 294 303 311 320 327 332 337 342 343 342 343 346 348 350 351 351 348 345 343 343 343 343 341 338 334 331 327 322 317 314 313 313 311 308 308 311 311 310 306 301 297 297 297 297 298 299 301 303 306 307 310 311 309 306 302 299
237 244 249 252 252 254 256 255 257 258 260 263 262 263 264 262 260 252 244 245 250 252 256 260 262 266 268 273 281 289 293 299 306 315 323 331 336 338 338 338 341 344 347 349 349 347 344 341 340 339 339 338 336 334 332 328 322 317 316 316 315 315 313 314 317 317 316 315 311 305 301 300 300 301 301 303 306 308 308 309 309 309 308 306 303
236 242 248 250 251 255 257 257 259 262 264 267 269 271 270 268 267 262 255 255 259 260 260 262 266 269 272 275 281 286 288 291 298 306 315 323 330 334 334 334 337 340 343 346 346 345 342 339 337 336 334 332 330 329 327 325 322 320 318 316 313 310 310 312 313 309 309 312 313 309 304 302 303 303 303 306 308 309 308 308 307 307 308 308 305
234 238 243 246 249 251 254 259 263 264 267 269 270 270 269 268 265 264 265 261 258 261 265 269 271 273 276 277 280 284 286 288 292 299 308 316 324 328 328 330 334 337 340 342 343 343 340 338 337 333 331 330 329 326 324 322 321 320 318 314 310 307 304 302 297 292 298 306 308 306 304 302 304 305 306 308 310 308 308 308 307 307 309 310 309
231 235 239 243 246 248 252 259 264 265 268 269 269 269 269 269 266 265 267 260 255 261 269 274 277 279 280 278 278 281 284 287 290 294 302 310 317 321 324 328 332 336 338 340 342 343 341 338 336 332 329 329 328 326 324 322 320 318 315 311 308 307 302 297 293 294 300 306 306 305 301 298 301 304 305 308 309 309 309 309 308 307 307 308 309
220 228 236 243 246 248 251 258 262 263 265 266 268 270 270 271 269 267 267 264 264 269 271 271 274 279 280 277 275 278 282 286 288 290 296 305 312 316 319 325 330 334 338 340 342 343 341 339 335 331 327 327 329 330 328 326 325 321 317 312 310 310 306 300 300 301 303 306 309 308 301 296 298 299 300 303 307 308 309 309 308 306 306 305 306
209 219 229 239 242 244 247 252 255 256 260 264 266 269 270 272 273 271 269 267 270 274 273 268 267 270 275 276 276 278 281 284 285 286 291 300 308 311 315 322 328 333 337 339 339 340 340 337 332 326 324 327 330 330 329 329 328 324 319 314 312 313 312 306 302 300 301 304 307 306 303 299 298 296 297 301 304 305 307 307 306 305 305 304 304
210 216 226 237 238 240 245 248 252 256 259 262 265 267 270 271 272 271 271 271 273 273 271 266 263 265 268 272 275 277 279 282 282 283 288 297 303 306 310 318 325 332 335 336 335 336 336 332 326 324 325 328 329 331 332 334 333 328 321 317 315 316 316 313 309 306 305 306 306 305 304 301 298 296 296 299 302 304 305 304 303 305 305 304 305
205 212 225 232 232 236 243 246 250 255 257 259 262 264 267 268 269 269 269 272 273 273 270 266 264 265 266 269 273 275 277 280 281 280 285 294 298 300 306 315 324 331 333 333 332 333 333 330 328 328 328 328 330 334 337 338 337 333 327 324 322 321 320 317 313 311 309 308 309 308 306 303 300 297 297 300 303 304 305 304 303 305 306 306 307
203 217 221 220 225 232 241 246 247 250 253 255 258 262 265 265 264 266 267 269 272 274 272 268 265 265 265 266 271 275 278 279 278 276 282 292 294 296 304 315 324 329 331 331 331 331 333 334 335 334 331 330 332 336 340 341 341 340 336 334 330 326 323 319 315 313 311 310 311 311 309 306 303 302 302 304 305 305 306 305 304 304 306 308 308
207 226 223 221 227 236 248 252 248 249 251 254 257 260 264 264 262 262 263 265 269 271 272 270 267 265 265 267 271 276 279 277 273 272 280 289 291 294 305 316 323 328 331 333 331 333 339 340 337 334 333 334 336 339 343 344 345 343 340 337 333 330 330 327 322 317 314 314 313 312 310 306 304 305 306 306 307 307 305 305 305 306 307 307 307
217 236 225 221 224 232 248 253 250 253 255 257 259 259 261 263 262 262 261 262 265 267 269 269 267 266 267 268 269 272 274 271 267 270 279 286 287 293 308 319 325 330 334 334 331 335 341 339 335 333 335 340 342 342 343 344 342 340 338 335 331 333 336 333 328 323 318 316 314 311 310 306 303 304 305 306 308 310 307 305 307 308 308 306 306
224 234 226 223 226 235 249 255 256 258 259 261 263 264 265 265 263 263 262 262 263 263 265 267 266 267 266 263 264 266 263 262 266 272 279 284 287 298 314 323 328 332 334 331 330 335 340 337 333 335 341 347 347 344 340 338 335 333 333 332 331 333 335 332 327 322 318 314 311 309 306 304 303 304 306 308 310 312 309 307 308 309 308 307 309
217 224 225 228 235 247 260 264 262 259 258 261 264 266 268 269 268 266 262 261 263 262 262 264 265 265 262 261 265 267 258 256 265 274 279 282 291 305 319 325 328 332 330 328 332 336 337 335 333 336 343 348 346 339 331 327 326 326 326 328 330 331 332 330 325 320 317 314 310 307 304 304 304 303 303 308 313 314 313 312 314 314 312 311 311
214 222 227 233 244 255 264 266 263 260 258 259 264 269 271 274 275 272 267 264 263 262 261 263 265 264 261 261 263 262 253 255 266 274 277 283 296 310 322 326 327 329 326 325 331 334 334 333 333 336 341 343 339 331 324 319 318 319 319 322 327 330 331 328 324 319 317 316 312 307 304 304 303 300 301 307 312 313 313 315 317 315 313 311 309
217 225 230 240 256 265 267 264 263 264 262 260 266 272 274 277 281 281 274 267 265 264 263 263 262 260 259 255 254 255 253 257 268 274 276 287 301 313 323 325 325 325 322 320 324 328 329 331 334 337 340 339 331 323 320 317 314 314 316 318 323 328 330 327 323 319 317 316 313 308 304 302 300 298 299 303 306 308 310 314 314 312 312 310 309
219 225 232 248 265 271 273 270 266 265 263 261 265 270 272 276 284 289 281 272 270 268 265 265 262 260 255 245 243 253 259 257 263 270 277 292 307 320 326 325 323 322 321 318 315 316 320 325 330 335 339 337 330 323 322 322 319 319 322 323 323 324 326 326 322 318 316 315 312 308 306 304 300 297 296 298 300 304 308 311 312 311 311 310 310
216 227 247 267 276 277 278 275 267 261 260 263 267 269 272 278 287 289 281 275 273 269 267 270 269 267 258 246 243 256 256 248 254 267 281 298 313 323 326 324 321 320 317 312 309 310 314 319 325 331 336 336 332 329 331 331 327 325 326 327 324 322 321 321 320 316 313 312 309 307 307 307 304 299 295 295 299 303 306 310 311 309 308 308 307
226 251 269 275 281 286 285 280 267 255 255 262 267 270 274 278 283 284 279 275 272 267 264 266 266 264 255 248 248 250 239 237 253 271 286 304 315 321 325 324 321 318 313 308 306 308 309 312 316 322 331 336 335 333 333 331 327 324 322 323 323 320 317 316 316 314 310 308 305 305 307 308 306 302 297 297 300 303 306 309 310 306 304 304 304
246 264 270 274 285 294 297 296 280 259 255 259 265 271 273 274 278 279 275 270 266 261 255 252 257 258 248 241 241 236 224 226 255 273 291 306 313 318 319 319 321 323 323 319 311 307 306 305 304 305 316 330 332 331 330 326 322 320 318 317 317 316 314 314 314 312 307 304 302 303 305 306 307 305 302 301 302 303 306 308 308 305 302 303 306
253 263 269 282 295 299 302 309 307 289 273 266 267 270 271 271 271 267 262 259 256 254 250 246 253 259 250 238 235 229 215 207 246 276 302 306 311 317 315 318 325 331 335 333 321 310 304 302 301 301 313 325 325 325 326 323 318 316 314 312 311 310 312 314 313 308 304 300 298 300 302 303 305 304 303 302 302 303 307 308 307 306 304 306 308
256 265 277 288 296 300 303 305 306 300 287 272 266 263 260 261 260 257 258 257 254 255 257 258 262 264 255 242 233 225 214 198 231 278 302 307 318 325 324 329 333 335 335 331 322 315 308 306 306 306 314 323 324 322 322 318 313 311 310 308 307 307 310 314 311 304 301 300 297 296 299 300 301 301 300 301 302 304 307 307 306 306 306 309 312
251 269 284 287 292 299 302 302 301 297 290 282 274 264 255 255 256 258 261 261 257 257 263 269 272 270 264 259 244 224 214 205 234 281 300 313 327 331 332 333 331 330 329 324 321 317 311 312 313 306 305 316 322 320 318 312 307 307 307 306 305 305 309 312 307 299 299 302 297 294 295 297 298 299 300 301 302 303 306 306 305 306 307 311 314
261 284 292 293 295 296 296 298 297 293 291 289 284 276 267 262 259 260 261 261 263 263 262 267 272 271 269 267 247 220 225 238 263 287 302 318 327 330 331 328 325 325 322 317 315 308 300 306 314 308 303 311 318 316 312 307 304 305 306 305 303 303 305 307 303 296 296 300 297 293 293 295 296 298 299 300 302 304 305 306 306 307 308 311 314
276 285 287 289 291 292 295 297 296 291 290 290 286 282 279 273 266 264 263 263 266 264 258 262 268 269 269 263 226 216 240 259 281 295 309 320 324 325 323 320 320 321 316 311 309 302 296 302 310 310 309 312 313 310 305 303 304 305 306 304 301 300 301 302 300 296 294 296 294 293 293 294 295 298 300 301 302 303 304 305 306 307 307 310 315
266 262 266 274 283 291 296 299 301 296 291 293 291 287 290 290 282 276 273 271 268 259 250 252 256 260 264 255 220 230 256 273 295 305 313 316 317 318 315 313 315 315 311 308 304 300 299 303 306 308 311 311 307 304 303 303 305 306 305 303 300 299 298 299 298 296 294 294 291 290 292 294 297 300 301 301 302 303 304 305 305 305 307 312 317
263 264 271 279 287 294 297 300 302 297 295 300 298 293 298 303 299 292 285 275 264 248 238 242 246 251 258 251 232 249 266 277 296 309 314 311 309 310 310 309 309 309 307 305 301 299 301 304 307 309 309 306 302 302 303 304 305 305 304 302 300 298 297 296 296 295 294 292 288 288 291 295 300 301 300 301 303 304 306 307 305 305 308 313 318
263 277 289 293 294 294 297 298 294 291 296 302 301 299 301 304 306 303 283 254 240 233 230 235 238 239 244 243 238 251 261 272 293 304 303 301 302 303 304 302 301 304 306 305 303 303 304 306 308 306 303 300 299 301 302 303 304 304 302 301 300 298 296 294 294 294 293 288 285 288 293 298 302 302 302 305 307 308 309 309 305 306 310 314 317
273 284 293 297 297 296 297 296 290 290 299 302 302 304 304 301 302 299 273 240 232 233 235 238 237 235 235 234 239 252 259 265 277 285 289 294 298 299 296 292 293 299 302 301 300 301 304 305 303 299 296 297 299 301 303 304 303 301 300 300 300 299 297 295 295 294 291 286 286 291 296 301 303 304 305 309 312 313 313 310 307 307 312 315 316
278 284 293 300 303 298 294 294 293 296 302 303 304 305 303 296 288 275 255 239 234 236 238 236 232 229 227 223 224 235 243 247 263 284 293 297 298 297 292 287 289 293 295 297 299 300 301 299 295 294 296 298 300 302 304 304 303 301 300 301 300 299 296 293 291 291 288 288 292 296 299 303 303 304 306 310 314 317 315 312 310 311 314 317 317
280 288 297 304 299 287 285 290 293 295 297 298 297 293 284 270 251 235 231 228 226 228 230 226 220 216 216 215 216 224 230 239 266 292 300 301 299 296 290 287 288 291 293 295 296 295 292 291 292 296 298 299 301 303 304 304 303 302 301 301 299 296 290 284 283 286 288 291 296 299 301 303 303 303 305 308 313 315 313 311 312 312 313 317 319
287 294 299 298 285 277 281 286 287 290 293 295 293 288 283 277 262 240 224 218 221 222 218 215 216 218 218 217 215 219 227 240 267 292 301 301 297 291 287 286 288 289 289 289 289 288 289 293 297 299 300 300 302 302 302 302 301 301 301 300 298 293 284 277 278 285 289 293 298 301 302 303 303 302 303 306 309 311 311 311 313 313 313 316 320
290 293 295 292 284 282 284 285 287 292 297 300 297 287 280 271 251 233 218 211 217 219 211 209 215 219 218 216 217 224 236 256 285 303 303 295 291 287 285 285 284 283 284 286 287 289 293 296 298 299 299 302 303 302 302 302 301 301 301 300 297 291 283 278 280 285 289 295 300 302 302 302 301 300 301 304 307 309 312 314 314 315 315 315 318
291 291 290 287 285 283 281 285 292 296 301 303 294 284 284 276 257 253 248 224 212 209 205 204 206 207 210 217 226 239 265 294 308 308 300 292 290 288 285 283 282 283 286 288 289 293 296 297 297 297 298 301 303 302 302 301 300 301 301 300 297 292 285 284 284 286 291 297 300 302 302 301 301 300 300 303 306 308 312 314 314 315 316 314 316
285 285 286 285 284 280 278 285 295 298 302 304 297 295 300 288 267 269 269 241 212 200 202 201 199 204 215 228 246 271 299 307 304 300 297 295 294 290 285 284 284 285 286 288 291 295 296 295 295 295 298 300 299 298 298 298 298 300 301 300 299 294 288 286 286 287 292 298 300 301 302 302 301 300 300 301 304 306 309 311 311 312 314 313 314
284 285 287 284 281 281 284 292 300 301 305 307 300 295 291 277 269 281 279 251 227 229 257 244 236 246 255 270 291 296 299 300 298 298 299 297 293 287 282 281 281 282 283 287 290 292 293 293 294 297 299 299 295 294 294 295 296 297 298 298 297 294 289 286 286 288 292 296 299 301 302 302 301 301 301 301 303 305 306 307 308 308 310 311 311
Height
3198 3198 3199 3200 3201 3202 3203 3205 3206 3207 3207 3208 3208 3209 3210 3210 3210 3211 3211 3212 3212 3213 3213 3213 3213 3213 3212 3211 3211 3210 3209 3209 3208 3208 3208 3208 3206 3206 3205 3205 3204 3203 3202 3202 3201 3200 3199 3199 3198 3197 3196 3195 3194 3193 3192 3191 3191 3190 3190 3189 3189 3187 3186 3184 3184 3184 3184 3183 3182 3181 3179 3178 3177 3177 3177 3176 3176 3177 3177 3177 3177 3176 3177 3177 3176
3196 3196 3197 3199 3200 3201 3203 3204 3205 3206 3207 3207 3208 3208 3209 3209 3210 3210 3211 3212 3212 3212 3213 3213 3213 3212 3211 3210 3210 3209 3208 3207 3206 3206 3206 3205 3204 3203 3202 3202 3201 3200 3200 3199 3198 3197 3196 3196 3196 3195 3194 3193 3192 3191 3190 3189 3189 3188 3187 3187 3186 3185 3184 3182 3182 3182 3182 3181 3181 3180 3178 3176 3174 3174 3175 3175 3176 3177 3177 3176 3176 3175 3175 3175 3175
3195 3195 3196 3197 3198 3200 3201 3202 3203 3205 3206 3207 3207 3207 3208 3208 3209 3210 3210 3211 3212 3213 3213 3213 3213 3212 3211 3211 3209 3208 3207 3206 3205 3204 3203 3202 3202 3201 3201 3200 3199 3198 3198 3197 3196 3195 3194 3194 3193 3192 3192 3191 3189 3188 3188 3187 3186 3185 3185 3184 3184 3183 3182 3180 3180 3180 3179 3178 3178 3177 3177 3175 3173 3173 3173 3174 3174 3175 3175 3175 3175 3174 3174 3173 3173
3194 3194 3195 3195 3197 3198 3200 3201 3202 3203 3204 3205 3206 3206 3207 3208 3208 3209 3210 3211 3212 3213 3213 3213 3213 3213 3212 3211 3209 3208 3207 3205 3204 3203 3202 3202 3201 3200 3199 3198 3197 3197 3196 3195 3195 3194 3193 3192 3191 3190 3189 3189 3187 3186 3186 3185 3183 3182 3182 3182 3181 3181 3180 3179 3178 3178 3177 3176 3175 3174 3173 3173 3172 3171 3172 3172 3172 3172 3172 3172 3172 3172 3172 3172 3171
3193 3193 3194 3195 3196 3197 3199 3200 3201 3202 3203 3204 3205 3206 3207 3207 3208 3209 3210 3211 3212 3213 3213 3213 3213 3212 3211 3210 3209 3208 3207 3205 3204 3203 3202 3201 3200 3199 3198 3197 3196 3195 3194 3193 3193 3192 3191 3190 3189 3188 3188 3187 3186 3184 3183 3182 3181 3180 3180 3180 3179 3178 3178 3178 3177 3176 3175 3175 3173 3171 3170 3169 3169 3168 3169 3170 3170 3169 3169 3169 3169 3169 3170 3170 3170
3192 3192 3193 3194 3195 3196 3197 3198 3200 3201 3202 3203 3204 3205 3206 3207 3208 3208 3209 3210 3211 3212 3212 3212 3211 3211 3211 3210 3208 3207 3206 3205 3204 3202 3201 3200 3199 3198 3197 3196 3195 3194 3193 3192 3191 3190 3189 3188 3187 3187 3186 3185 3184 3182 3182 3180 3179 3178 3178 3177 3177 3176 3176 3176 3175 3174 3174 3173 3171 3170 3168 3167 3166 3165 3165 3167 3168 3167 3166 3166 3166 3166 3166 3167 3167
3190 3191 3192 3193 3194 3195 3195 3197 3199 3200 3201 3202 3203 3204 3205 3206 3207 3208 3209 3210 3211 3211 3210 3210 3210 3210 3210 3209 3208 3206 3205 3204 3203 3202 3201 3200 3199 3198 3197 3195 3194 3193 3192 3191 3190 3189 3188 3188 3187 3186 3185 3184 3183 3181 3180 3179 3178 3177 3176 3175 3174 3174 3173 3173 3172 3173 3172 3171 3169 3168 3167 3165 3164 3164 3163 3162 3164 3165 3164 3163 3163 3163 3163 3163 3164
3188 3189 3190 3192 3193 3193 3194 3196 3197 3199 3200 3201 3202 3204 3205 3206 3206 3207 3208 3209 3210 3210 3209 3209 3209 3209 3208 3207 3206 3206 3205 3204 3203 3202 3200 3199 3198 3197 3196 3195 3194 3193 3192 3191 3190 3189 3188 3187 3186 3185 3184 3183 3182 3181 3179 3178 3177 3175 3174 3173 3172 3172 3171 3171 3170 3170 3170 3168 3167 3166 3165 3165 3164 3163 3161 3159 3159 3160 3161 3161 3161 3160 3160 3160 3160
3186 3188 3189 3190 3192 3193 3194 3195 3196 3198 3199 3200 3202 3203 3204 3205 3205 3206 3207 3208 3208 3208 3208 3208 3208 3207 3206 3206 3205 3204 3204 3203 3202 3201 3201 3199 3198 3197 3195 3194 3193 3192 3191 3190 3189 3188 3187 3186 3185 3184 3183 3182 3181 3179 3178 3177 3175 3174 3173 3172 3171 3170 3170 3169 3168 3168 3167 3166 3165 3165 3164 3164 3163 3161 3159 3158 3157 3156 3157 3158 3158 3158 3159 3158 3157
3184 3186 3188 3189 3190 3192 3193 3194 3195 3196 3198 3199 3201 3202 3202 3203 3204 3205 3206 3206 3207 3207 3207 3207 3207 3206 3205 3204 3204 3204 3204 3203 3203 3202 3201 3200 3199 3197 3196 3194 3193 3192 3190 3189 3188 3187 3185 3184 3183 3181 3180 3179 3178 3177 3176 3175 3174 3173 3171 3171 3170 3169 3168 3167 3167 3165 3165 3164 3164 3164 3163 3162 3161 3160 3158 3157 3156 3154 3154 3154 3154 3154 3156 3156 3155
3182 3184 3186 3187 3189 3190 3191 3192 3194 3195 3196 3198 3199 3200 3201 3202 3203 3204 3205 3205 3205 3205 3205 3205 3204 3203 3203 3203 3203 3203 3203 3203 3203 3202 3201 3200 3199 3197 3196 3194 3192 3191 3189 3188 3187 3185 3183 3182 3180 3179 3178 3177 3176 3175 3173 3172 3171 3170 3169 3169 3168 3168 3166 3165 3165 3163 3163 3162 3162 3161 3160 3160 3159 3158 3156 3155 3153 3152 3151 3151 3151 3151 3151 3152 3152
3180 3182 3184 3185 3187 3188 3189 3190 3192 3193 3194 3196 3197 3198 3199 3200 3201 3202 3203 3203 3203 3203 3203 3202 3202 3201 3202 3202 3202 3202 3202 3202 3201 3201 3200 3199 3198 3196 3194 3193 3191 3189 3188 3186 3185 3183 3181 3179 3178 3177 3175 3174 3173 3172 3171 3169 3168 3167 3167 3166 3166 3166 3165 3163 3163 3162 3161 3160 3160 3159 3158 3157 3156 3154 3153 3152 3151 3149 3148 3148 3148 3147 3147 3147 3148
3178 3180 3181 3183 3184 3185 3187 3188 3189 3190 3192 3194 3195 3196 3197 3198 3199 3200 3201 3201 3201 3201 3200 3200 3199 3200 3200 3201 3201 3201 3201 3200 3200 3199 3198 3197 3195 3194 3193 3191 3189 3188 3186 3184 3182 3181 3179 3177 3176 3174 3173 3172 3170 3169 3168 3167 3167 3166 3165 3164 3164 3163 3163 3162 3161 3160 3159 3158 3157 3156 3155 3154 3153 3151 3150 3149 3148 3147 3146 3145 3144 3143 3142 3143 3144
3176 3177 3179 3180 3181 3183 3185 3187 3188 3189 3191 3192 3193 3194 3195 3196 3197 3198 3199 3199 3199 3199 3198 3198 3197 3198 3199 3199 3199 3199 3199 3198 3197 3196 3195 3194 3193 3191 3190 3189 3187 3185 3184 3182 3180 3178 3177 3175 3173 3172 3171 3170 3169 3168 3167 3166 3165 3164 3163 3163 3162 3162 3161 3160 3160 3158 3157 3156 3155 3154 3153 3152 3150 3149 3148 3146 3145 3144 3143 3142 3142 3141 3140 3139 3140
3175 3176 3177 3178 3180 3181 3183 3185 3186 3187 3189 3190 3191 3192 3193 3194 3195 3196 3196 3197 3197 3197 3196 3196 3196 3196 3197 3197 3197 3197 3196 3196 3194 3194 3193 3192 3191 3190 3188 3187 3185 3184 3182 3180 3178 3176 3175 3173 3171 3170 3169 3168 3167 3166 3165 3165 3164 3163 3162 3161 3161 3160 3159 3159 3158 3157 3156 3155 3153 3152 3151 3150 3148 3147 3145 3144 3143 3141 3140 3139 3138 3137 3136 3136 3136
3173 3174 3175 3176 3178 3179 3181 3183 3184 3186 3186 3187 3189 3189 3190 3191 3193 3194 3194 3194 3194 3194 3194 3194 3194 3194 3194 3194 3194 3194 3194 3193 3192 3192 3191 3190 3189 3188 3187 3185 3184 3183 3181 3179 3177 3175 3174 3172 3170 3169 3167 3166 3165 3165 3164 3163 3162 3161 3160 3160 3159 3158 3157 3157 3156 3155 3154 3153 3152 3150 3149 3148 3146 3145 3143 3142 3140 3139 3137 3136 3134 3133 3131 3130 3131
3171 3172 3173 3174 3176 3177 3178 3180 3182 3183 3184 3185 3186 3187 3188 3189 3190 3191 3191 3191 3192 3192 3192 3192 3192 3192 3192 3192 3192 3192 3191 3191 3190 3190 3189 3188 3187 3186 3185 3184 3183 3181 3179 3177 3176 3174 3173 3171 3170 3168 3166 3165 3164 3163 3162 3161 3161 3160 3159 3158 3157 3156 3155 3154 3153 3152 3151 3151 3150 3149 3147 3146 3144 3142 3141 3139 3138 3136 3135 3133 3132 3130 3128 3126 3125
3169 3170 3172 3173 3174 3175 3176 3178 3179 3180 3181 3182 3183 3184 3185 3186 3187 3188 3188 3189 3189 3190 3190 3190 3190 3190 3190 3189 3189 3189 3189 3189 3188 3187 3187 3186 3185 3184 3183 3182 3181 3180 3178 3176 3174 3173 3172 3170 3169 3167 3166 3164 3163 3161 3160 3159 3159 3158 3157 3156 3155 3153 3152 3152 3151 3150 3148 3148 3147 3146 3145 3144 3142 3141 3139 3138 3136 3134 3132 3131 3129 3128 3126 3124 3122
3167 3168 3170 3171 3172 3173 3174 3175 3176 3177 3178 3179 3181 3181 3182 3183 3184 3184 3185 3186 3187 3187 3187 3187 3187 3188 3188 3187 3187 3187 3187 3186 3186 3185 3184 3184 3184 3183 3182 3181 3180 3179 3177 3175 3173 3171 3169 3168 3167 3165 3164 3163 3161 3160 3159 3158 3157 3156 3155 3154 3153 3151 3150 3149 3149 3147 3146 3146 3145 3144 3143 3141 3140 3138 3137 3135 3134 3132 3130 3129 3127 3125 3123 3122 3119
3164 3166 3167 3168 3170 3171 3172 3173 3174 3175 3176 3177 3178 3178 3179 3180 3181 3181 3182 3182 3183 3184 3184 3184 3185 3185 3185 3185 3185 3184 3184 3184 3183 3183 3182 3182 3182 3181 3180 3179 3178 3177 3175 3172 3170 3168 3167 3166 3165 3164 3162 3161 3160 3159 3158 3157 3156 3155 3154 3153 3151 3150 3148 3147 3146 3145 3144 3143 3142 3141 3140 3138 3137 3136 3134 3133 3131 3129 3127 3126 3124 3122 3120 3118 3117
3163 3164 3165 3166 3167 3169 3170 3171 3172 3172 3173 3173 3174 3175 3176 3177 3178 3178 3179 3179 3179 3180 3181 3181 3182 3183 3183 3183 3183 3182 3182 3182 3181 3181 3180 3181 3181 3180 3179 3178 3176 3174 3172 3170 3167 3166 3164 3163 3163 3162 3161 3160 3159 3157 3156 3155 3154 3152 3151 3150 3149 3148 3147 3145 3144 3143 3142 3141 3140 3139 3137 3136 3135 3134 3132 3130 3128 3126 3124 3123 3121 3119 3117 3115 3113
3161 3162 3164 3164 3165 3166 3167 3168 3168 3169 3169 3170 3171 3172 3173 3174 3175 3175 3176 3176 3176 3177 3177 3178 3179 3180 3180 3181 3181 3181 3180 3180 3180 3179 3178 3178 3178 3178 3177 3175 3174 3172 3169 3167 3165 3164 3163 3162 3161 3161 3160 3159 3157 3156 3154 3153 3152 3150 3149 3148 3147 3146 3145 3143 3142 3141 3140 3139 3137 3136 3135 3133 3132 3131 3129 3127 3125 3123 3121 3120 3118 3115 3113 3111 3109
3158 3160 3161 3162 3162 3163 3164 3164 3164 3165 3165 3166 3168 3169 3169 3170 3171 3171 3172 3173 3174 3174 3174 3175 3176 3177 3178 3178 3178 3178 3178 3178 3177 3177 3176 3176 3176 3175 3175 3173 3171 3169 3167 3165 3163 3162 3161 3160 3160 3159 3158 3157 3156 3154 3153 3151 3150 3148 3147 3145 3144 3143 3142 3141 3140 3138 3137 3136 3134 3133 3131 3130 3128 3127 3126 3124 3122 3120 3119 3117 3114 3112 3109 3107 3105
3155 3156 3158 3158 3159 3159 3160 3161 3161 3162 3163 3164 3165 3166 3167 3167 3168 3168 3169 3170 3171 3171 3171 3172 3172 3173 3174 3175 3175 3175 3175 3174 3174 3174 3174 3173 3173 3173 3172 3171 3169 3166 3164 3163 3162 3160 3159 3159 3158 3157 3156 3155 3154 3152 3151 3149 3148 3146 3145 3143 3142 3141 3139 3138 3137 3135 3134 3132 3131 3129 3128 3126 3124 3123 3122 3121 3119 3117 3115 3113 3110 3108 3106 3104 3102
3152 3153 3154 3154 3155 3157 3158 3159 3159 3160 3160 3161 3162 3163 3164 3164 3165 3165 3166 3167 3168 3168 3168 3168 3169 3170 3171 3171 3170 3171 3171 3171 3171 3172 3171 3171 3171 3171 3170 3168 3166 3164 3162 3161 3159 3158 3158 3157 3156 3155 3154 3153 3151 3150 3148 3147 3146 3144 3143 3141 3139 3138 3136 3135 3134 3132 3131 3129 3127 3126 3124 3122 3120 3119 3118 3117 3115 3113 3111 3109 3107 3105 3102 3100 3099
3150 3151 3151 3152 3153 3154 3156 3156 3157 3157 3158 3159 3160 3160 3160 3161 3162 3162 3163 3164 3165 3165 3164 3165 3165 3166 3167 3166 3166 3167 3168 3168 3168 3169 3169 3169 3169 3168 3167 3165 3163 3161 3159 3158 3157 3156 3155 3154 3153 3152 3151 3150 3149 3147 3146 3144 3143 3142 3140 3139 3137 3135 3134 3132 3131 3129 3128 3126 3124 3122 3120 3118 3116 3115 3114 3113 3111 3109 3108 3106 3104 3102 3099 3096 3094
3148 3149 3150 3150 3151 3152 3153 3154 3154 3155 3155 3156 3157 3157 3158 3158 3158 3159 3160 3161 3161 3161 3161 3161 3162 3163 3164 3163 3161 3163 3164 3164 3165 3165 3166 3166 3166 3165 3164 3161 3159 3157 3155 3155 3154 3154 3153 3152 3151 3150 3149 3148 3146 3144 3143 3142 3140 3139 3138 3136 3134 3132 3130 3129 3127 3126 3124 3122 3121 3119 3117 3115 3113 3112 3111 3109 3107 3106 3104 3103 3101 3099 3096 3093 3091
3146 3147 3147 3148 3149 3150 3151 3151 3152 3152 3152 3153 3154 3155 3155 3155 3156 3157 3157 3157 3158 3157 3157 3158 3158 3160 3160 3158 3157 3159 3161 3162 3162 3162 3163 3163 3163 3162 3160 3157 3155 3154 3153 3153 3152 3151 3150 3150 3149 3148 3146 3144 3143 3141 3141 3139 3138 3137 3135 3134 3131 3129 3127 3126 3125 3123 3121 3119 3117 3116 3114 3112 3110 3109 3108 3106 3104 3103 3101 3100 3098 3095 3093 3090 3088
3143 3144 3145 3146 3147 3147 3148 3148 3148 3148 3149 3150 3151 3152 3153 3153 3153 3154 3154 3154 3154 3154 3154 3154 3155 3156 3156 3154 3153 3156 3159 3159 3159 3159 3160 3160 3160 3158 3156 3154 3152 3152 3151 3151 3150 3149 3149 3148 3147 3146 3144 3142 3140 3139 3139 3137 3136 3135 3133 3131 3129 3126 3124 3123 3122 3120 3119 3117 3115 3112 3110 3109 3107 3106 3105 3103 3101 3100 3098 3096 3095 3092 3090 3088 3085
3141 3142 3143 3144 3144 3145 3145 3144 3144 3145 3145 3146 3148 3149 3150 3150 3151 3151 3151 3151 3150 3150 3150 3151 3151 3151 3151 3150 3150 3152 3154 3155 3156 3157 3157 3157 3156 3155 3153 3151 3150 3150 3149 3149 3148 3148 3147 3147 3145 3144 3142 3140 3138 3137 3136 3135 3133 3132 3130 3128 3126 3124 3122 3120 3118 3117 3116 3114 3112 3109 3108 3106 3105 3104 3102 3100 3099 3097 3095 3093 3091 3089 3087 3085 3082
3139 3140 3141 3142 3142 3142 3142 3141 3141 3142 3142 3143 3144 3145 3146 3147 3147 3148 3148 3148 3147 3147 3147 3147 3148 3147 3147 3145 3144 3147 3151 3152 3152 3154 3154 3154 3153 3151 3150 3149 3149 3148 3148 3147 3147 3146 3146 3145 3143 3141 3139 3137 3136 3135 3133 3132 3130 3129 3127 3126 3124 3121 3119 3117 3115 3113 3112 3110 3108 3106 3104 3103 3102 3101 3099 3098 3096 3094 3092 3090 3088 3086 3084 3082 3078
3136 3137 3138 3139 3139 3139 3139 3138 3139 3139 3140 3141 3142 3143 3143 3144 3144 3145 3145 3145 3145 3144 3143 3144 3145 3144 3143 3141 3141 3144 3148 3149 3150 3151 3151 3150 3149 3148 3147 3147 3147 3146 3146 3145 3145 3144 3143 3142 3140 3138 3136 3135 3134 3132 3131 3129 3127 3126 3125 3123 3121 3119 3117 3115 3113 3110 3108 3106 3104 3102 3101 3100 3098 3097 3096 3095 3093 3091 3090 3087 3085 3083 3081 3079 3075
3134 3135 3135 3136 3136 3136 3135 3135 3136 3136 3137 3139 3139 3140 3140 3141 3141 3142 3142 3142 3141 3140 3139 3140 3140 3140 3138 3139 3141 3144 3146 3147 3148 3148 3148 3147 3145 3144 3144 3144 3144 3144 3143 3143 3142 3141 3140 3138 3136 3134 3133 3133 3132 3130 3128 3126 3125 3123 3122 3120 3119 3117 3115 3112 3110 3107 3105 3103 3101 3099 3098 3096 3095 3094 3092 3091 3090 3088 3086 3084 3082 3080 3078 3076 3073
3133 3133 3133 3133 3133 3133 3132 3132 3132 3133 3135 3136 3137 3137 3137 3138 3138 3138 3138 3138 3136 3135 3135 3134 3135 3134 3133 3136 3141 3143 3143 3145 3146 3145 3144 3143 3141 3141 3141 3141 3141 3141 3140 3140 3139 3138 3136 3134 3133 3131 3130 3130 3128 3127 3125 3123 3122 3120 3119 3117 3115 3114 3112 3109 3107 3104 3102 3100 3098 3096 3094 3093 3092 3090 3089 3088 3086 3084 3082 3080 3079 3076 3074 3072 3070
3131 3131 3132 3131 3130 3129 3129 3129 3129 3131 3132 3133 3133 3134 3134 3134 3134 3134 3134 3133 3132 3131 3130 3129 3129 3127 3127 3131 3137 3138 3139 3142 3143 3141 3140 3139 3138 3138 3138 3138 3138 3138 3137 3136 3135 3134 3133 3131 3129 3128 3127 3127 3125 3124 3122 3120 3118 3116 3115 3114 3112 3111 3108 3106 3103 3101 3098 3097 3095 3093 3091 3090 3089 3087 3086 3084 3082 3080 3078 3076 3075 3073 3071 3069 3066
3129 3129 3129 3128 3127 3126 3126 3126 3127 3128 3129 3130 3130 3131 3132 3131 3130 3129 3128 3128 3127 3126 3124 3123 3123 3122 3123 3127 3131 3132 3135 3138 3138 3138 3137 3135 3135 3135 3135 3136 3135 3134 3133 3132 3131 3130 3130 3128 3127 3126 3125 3124 3122 3121 3119 3117 3115 3113 3112 3110 3109 3107 3105 3102 3100 3097 3095 3094 3092 3090 3088 3087 3086 3084 3083 3081 3078 3077 3075 3073 3071 3069 3067 3065 3063
3126 3125 3125 3125 3125 3124 3124 3124 3125 3126 3127 3127 3128 3128 3128 3126 3124 3122 3122 3122 3121 3120 3120 3121 3121 3122 3124 3125 3126 3128 3131 3132 3133 3134 3133 3132 3132 3132 3132 3132 3130 3129 3128 3127 3126 3127 3126 3124 3124 3123 3122 3120 3119 3118 3116 3114 3112 3110 3108 3107 3104 3103 3101 3099 3096 3094 3092 3091 3089 3087 3085 3084 3083 3081 3079 3077 3074 3073 3072 3069 3067 3065 3064 3061 3059
3123 3122 3122 3122 3122 3122 3122 3122 3123 3123 3124 3125 3125 3124 3122 3120 3119 3118 3118 3116 3115 3116 3118 3120 3122 3122 3123 3122 3123 3125 3127 3127 3128 3130 3130 3129 3129 3128 3128 3127 3126 3125 3124 3122 3122 3123 3122 3121 3121 3120 3118 3117 3116 3114 3113 3111 3109 3107 3105 3102 3100 3098 3096 3094 3093 3091 3089 3088 3086 3084 3083 3081 3080 3078 3076 3073 3071 3069 3068 3066 3064 3062 3060 3058 3055
3120 3119 3119 3119 3119 3119 3119 3120 3120 3120 3121 3121 3120 3119 3118 3117 3116 3116 3114 3113 3113 3115 3117 3118 3119 3119 3119 3117 3119 3122 3123 3122 3125 3127 3126 3126 3125 3125 3124 3123 3121 3121 3120 3119 3119 3119 3118 3118 3117 3116 3115 3114 3112 3110 3109 3107 3105 3103 3101 3098 3096 3094 3092 3090 3089 3088 3087 3085 3083 3081 3080 3078 3076 3074 3072 3070 3068 3066 3064 3062 3060 3058 3056 3054 3052
3117 3117 3117 3117 3116 3116 3117 3117 3117 3117 3117 3117 3116 3115 3114 3114 3114 3114 3112 3112 3114 3116 3116 3115 3114 3114 3113 3113 3116 3119 3119 3120 3122 3123 3123 3123 3122 3121 3120 3119 3118 3117 3117 3116 3116 3115 3114 3113 3113 3112 3111 3109 3107 3106 3104 3103 3101 3099 3096 3094 3092 3090 3088 3086 3085 3084 3083 3082 3080 3078 3077 3075 3073 3071 3069 3067 3065 3063 3061 3059 3057 3054 3052 3050 3048
3115 3115 3115 3115 3114 3114 3114 3114 3114 3114 3115 3114 3113 3112 3112 3111 3111 3110 3109 3110 3112 3114 3114 3112 3110 3110 3110 3111 3114 3116 3117 3118 3119 3120 3120 3119 3119 3118 3117 3115 3115 3114 3114 3113 3113 3112 3110 3110 3109 3108 3106 3104 3103 3102 3100 3098 3096 3094 3092 3090 3087 3085 3083 3082 3081 3080 3078 3077 3076 3075 3073 3071 3070 3068 3066 3064 3061 3059 3058 3056 3054 3052 3049 3047 3045
3112 3112 3112 3112 3112 3111 3111 3111 3111 3111 3111 3111 3110 3109 3109 3108 3107 3106 3106 3107 3109 3110 3111 3109 3108 3108 3108 3110 3111 3113 3114 3115 3116 3117 3116 3115 3115 3115 3114 3112 3112 3112 3111 3110 3110 3109 3108 3106 3106 3104 3102 3100 3099 3098 3096 3094 3092 3090 3088 3085 3083 3081 3079 3078 3077 3076 3074 3073 3072 3071 3069 3068 3067 3065 3062 3060 3058 3056 3055 3053 3051 3049 3047 3044 3042
3110 3110 3109 3109 3109 3109 3108 3108 3108 3108 3108 3107 3107 3106 3105 3104 3104 3103 3104 3104 3105 3106 3107 3106 3105 3104 3105 3107 3109 3110 3112 3113 3113 3113 3113 3112 3112 3112 3111 3110 3109 3109 3108 3107 3107 3106 3104 3103 3101 3100 3098 3097 3096 3094 3093 3090 3088 3086 3083 3081 3079 3077 3075 3074 3072 3072 3070 3069 3068 3067 3066 3065 3064 3062 3059 3057 3055 3053 3052 3050 3049 3047 3044 3042 3040
3107 3107 3106 3106 3106 3106 3106 3106 3105 3105 3105 3104 3103 3102 3100 3100 3101 3101 3101 3101 3102 3103 3103 3102 3101 3101 3102 3105 3107 3109 3110 3110 3110 3110 3110 3110 3110 3110 3109 3108 3107 3107 3106 3105 3103 3102 3101 3099 3098 3097 3095 3094 3093 3091 3088 3086 3083 3081 3079 3077 3075 3072 3071 3070 3069 3068 3067 3066 3065 3064 3063 3062 3060 3058 3056 3054 3052 3051 3049 3048 3046 3044 3042 3040 3038
3104 3104 3103 3103 3103 3103 3103 3103 3102 3102 3102 3100 3099 3097 3096 3096 3097 3098 3098 3098 3098 3098 3098 3099 3099 3100 3102 3104 3105 3106 3106 3107 3107 3107 3108 3108 3108 3108 3107 3106 3105 3104 3103 3101 3099 3098 3097 3096 3095 3094 3092 3090 3088 3086 3084 3081 3079 3077 3075 3073 3071 3069 3067 3066 3065 3065 3064 3063 3062 3061 3060 3059 3057 3055 3054 3052 3050 3048 3047 3045 3043 3041 3039 3038 3035
3101 3100 3100 3100 3100 3100 3100 3100 3100 3099 3098 3096 3094 3092 3092 3092 3093 3093 3094 3095 3095 3094 3094 3094 3096 3097 3100 3101 3101 3101 3102 3103 3103 3104 3105 3106 3105 3105 3104 3103 3101 3100 3098 3097 3096 3095 3094 3093 3092 3090 3088 3086 3084 3082 3079 3077 3075 3073 3071 3069 3067 3065 3064 3063 3063 3062 3061 3060 3060 3059 3057 3056 3054 3053 3051 3049 3048 3046 3044 3042 3040 3038 3036 3034 3032
3097 3097 3097 3097 3098 3098 3097 3097 3096 3095 3093 3092 3090 3090 3090 3091 3091 3091 3092 3092 3091 3089 3089 3089 3091 3093 3095 3096 3097 3098 3098 3099 3099 3101 3102 3102 3102 3101 3100 3098 3097 3095 3095 3094 3093 3092 3091 3089 3088 3086 3083 3082 3080 3078 3076 3073 3071 3070 3068 3066 3064 3063 3061 3060 3060 3059 3058 3057 3057 3055 3054 3053 3052 3050 3048 3047 3045 3043 3042 3040 3038 3035 3033 3031 3029
3094 3094 3094 3094 3094 3094 3094 3092 3091 3091 3090 3089 3088 3087 3088 3088 3086 3086 3088 3088 3086 3085 3084 3085 3087 3089 3090 3092 3093 3094 3096 3097 3098 3099 3099 3099 3098 3097 3096 3095 3093 3092 3092 3091 3090 3088 3087 3086 3084 3081 3079 3078 3076 3074 3072 3070 3068 3066 3065 3063 3062 3060 3058 3058 3057 3056 3055 3055 3054 3052 3051 3050 3049 3048 3046 3044 3042 3041 3039 3037 3035 3033 3030 3029 3027
3091 3091 3091 3091 3091 3091 3090 3088 3088 3088 3087 3086 3084 3083 3084 3084 3082 3082 3084 3083 3081 3081 3080 3080 3081 3083 3085 3087 3090 3093 3094 3096 3097 3097 3096 3096 3095 3093 3092 3091 3090 3089 3088 3087 3086 3084 3083 3082 3080 3078 3075 3073 3072 3070 3068 3066 3065 3063 3061 3060 3058 3057 3056 3055 3055 3054 3053 3052 3051 3050 3049 3048 3047 3045 3043 3042 3040 3038 3036 3034 3032 3030 3028 3026 3025
3089 3088 3088 3088 3087 3087 3087 3086 3085 3085 3084 3083 3082 3081 3081 3081 3080 3081 3081 3079 3078 3079 3080 3080 3081 3083 3084 3087 3090 3092 3093 3094 3094 3094 3093 3092 3090 3089 3087 3086 3086 3085 3084 3083 3082 3080 3079 3078 3076 3073 3071 3069 3067 3066 3064 3063 3061 3060 3058 3057 3055 3054 3053 3053 3052 3052 3050 3049 3048 3047 3046 3045 3044 3042 3041 3039 3037 3036 3034 3031 3029 3027 3026 3025 3023
3086 3085 3085 3085 3084 3084 3084 3083 3082 3081 3081 3080 3079 3079 3079 3078 3079 3080 3080 3078 3078 3081 3083 3084 3085 3085 3085 3086 3088 3089 3091 3091 3091 3090 3089 3087 3086 3085 3084 3083 3082 3081 3080 3079 3078 3076 3075 3073 3071 3069 3067 3065 3063 3062 3061 3059 3058 3056 3055 3054 3053 3052 3051 3050 3050 3049 3048 3047 3046 3045 3044 3042 3041 3040 3038 3037 3035 3033 3031 3029 3027 3025 3024 3022 3021